User: anonymous   Login
Location: Unspecified
(0.0000°N, 0.0000°E)
Time: 19:22:36
(UTC+00:00)
Language:

STARLINK-3538 - Orbit

View from above orbital plane
View from above orbital plane
View from above satellite
View from above satellite

Ground track
Ground track

The orbit is defined by the following mean orbital elements,

1 51996U          26145.10236782 +.00000000 +00000-0 +38117-4 0 00004
2 51996  53.2133  36.0895 0001165  81.6080 278.5044 15.08836208    07
Epoch (UTC): 25 May 2026 02:27:24
Eccentricity: 0.0001165
inclination: 53.2133°
perigee height: 539 km
apogee height: 541 km
right ascension of ascending node: 36.0895°
argument of perigee: 81.6080°
revolutions per day: 15.08836208
mean anomaly at epoch: 278.5044°

The dashed part of the orbit path shows where the satellite is in the earth's shadow,  

DLR